| time (UTC) | temp F | wind direction | speed MPH | gust MPH | rain 1hr in | rain 24hr in | rain mn in | humidity % | barometer mb |
| 20260505053058 | 55 | 233 | 0.0 | 1.0 | 0.00 | 0.00 | 0.00 | 1 | 1012.8 |
| 20260505052555 | 55 | 232 | 0.0 | 1.0 | 0.00 | 0.00 | 0.00 | 1 | 1012.8 |
| 20260505052054 | 55 | 235 | 0.0 | 1.0 | 0.00 | 0.00 | 0.00 | 1 | 1012.9 |
| 20260505051603 | 55 | 238 | 0.0 | 1.0 | 0.00 | 0.00 | 0.00 | 1 | 1012.7 |
| 20260505051054 | 55 | 238 | 0.0 | 1.0 | 0.00 | 0.00 | 0.00 | 1 | 1012.8 |
| 20260505050552 | 55 | 248 | 0.0 | 1.0 | 0.00 | 0.00 | 0.00 | 1 | 1012.7 |
| 20260505041549 | 55 | 233 | 0.0 | 1.0 | 0.00 | 0.00 | 0.00 | 1 | 1012.6 |
| 20260505041047 | 55 | 217 | 0.0 | 2.0 | 0.00 | 0.00 | 0.00 | 1 | 1012.5 |
| 20260505040549 | 55 | 236 | 0.0 | 2.0 | 0.00 | 0.00 | 0.00 | 1 | 1012.6 |
| 20260505040045 | 55 | 238 | 0.0 | 2.0 | 0.00 | 0.00 | 0.00 | 1 | 1012.4 |
| 20260505035543 | 55 | 229 | 0.0 | 2.0 | 0.00 | 0.00 | 0.00 | 1 | 1012.4 |
| 20260505035023 | 55 | 215 | 0.0 | 2.0 | 0.00 | 0.00 | 0.00 | 1 | 1012.4 |
| 20260505034523 | 55 | 233 | 0.0 | 2.0 | 0.00 | 0.00 | 0.00 | 1 | 1012.5 |
| 20260505034021 | 55 | 227 | 0.0 | 2.0 | 0.00 | 0.00 | 0.00 | 1 | 1012.4 |
| 20260505033519 | 56 | 226 | 0.0 | 2.0 | 0.00 | 0.00 | 0.00 | 1 | 1012.4 |
| 20260505033018 | 56 | 224 | 0.0 | 2.0 | 0.00 | 0.00 | 0.00 | 1 | 1012.3 |
| 20260505032517 | 56 | 219 | 0.0 | 1.0 | 0.00 | 0.00 | 0.00 | 1 | 1012.3 |
| 20260505032058 | 56 | 217 | 0.0 | 1.0 | 0.00 | 0.00 | 0.00 | 1 | 1012.4 |
| 20260505031557 | 56 | 232 | 0.0 | 1.0 | 0.00 | 0.00 | 0.00 | 1 | 1012.5 |
| 20260505031055 | 56 | 221 | 0.0 | 1.0 | 0.00 | 0.00 | 0.00 | 1 | 1012.4 |
| 20260505030555 | 56 | 172 | 0.0 | 1.0 | 0.00 | 0.00 | 0.00 | 1 | 1012.3 |
| 20260505030053 | 56 | 213 | 0.0 | 2.0 | 0.00 | 0.00 | 0.00 | 1 | 1012.2 |
| 20260505025550 | 56 | 233 | 0.0 | 2.0 | 0.00 | 0.00 | 0.00 | 1 | 1012.2 |
| 20260505025031 | 56 | 238 | 0.0 | 2.0 | 0.00 | 0.00 | 0.00 | 1 | 1012.3 |
| 20260505024531 | 56 | 228 | 0.0 | 3.0 | 0.00 | 0.00 | 0.00 | 1 | 1012.3 |
| 20260505024029 | 56 | 231 | 0.0 | 3.0 | 0.00 | 0.00 | 0.00 | 1 | 1012.2 |
| 20260505023527 | 56 | 233 | 0.0 | 2.0 | 0.00 | 0.00 | 0.00 | 1 | 1012.2 |
| 20260505023027 | 56 | 228 | 0.0 | 3.0 | 0.00 | 0.00 | 0.00 | 1 | 1012.2 |
| 20260505022524 | 56 | 243 | 0.0 | 3.0 | 0.00 | 0.00 | 0.00 | 1 | 1012.2 |
| 20260505022008 | 56 | 221 | 0.0 | 3.0 | 0.00 | 0.00 | 0.00 | 1 | 1012.3 |
| 20260505021510 | 56 | 228 | 0.0 | 4.0 | 0.00 | 0.00 | 0.00 | 1 | 1012.2 |
| 20260505021006 | 57 | 235 | 1.0 | 4.0 | 0.00 | 0.00 | 0.00 | 1 | 1012.3 |
| 20260505020502 | 57 | 226 | 0.0 | 3.0 | 0.00 | 0.00 | 0.00 | 1 | 1012.3 |
| 20260505015559 | 57 | 228 | 0.0 | 1.0 | 0.00 | 0.00 | 0.00 | 1 | 1012.3 |
| 20260505015042 | 57 | 233 | 0.0 | 1.0 | 0.00 | 0.00 | 0.00 | 1 | 1012.4 |
| 20260505014540 | 57 | 232 | 0.0 | 3.0 | 0.00 | 0.00 | 0.00 | 1 | 1012.4 |
| 20260505014040 | 57 | 203 | 0.0 | 4.0 | 0.00 | 0.00 | 0.00 | 1 | 1012.4 |
| 20260505013536 | 57 | 201 | 0.0 | 5.0 | 0.00 | 0.00 | 0.00 | 1 | 1012.4 |
| 20260505013050 | 57 | 207 | 0.0 | 5.0 | 0.00 | 0.00 | 0.00 | 1 | 1012.4 |
| 20260505012537 | 57 | 224 | 0.0 | 5.0 | 0.00 | 0.00 | 0.00 | 1 | 1012.4 |
| 20260505012014 | 58 | 229 | 2.0 | 5.0 | 0.00 | 0.00 | 0.00 | 1 | 1012.4 |
| 20260505011514 | 58 | 228 | 1.0 | 4.0 | 0.00 | 0.00 | 0.00 | 1 | 1012.5 |
| 20260505011011 | 58 | 158 | 0.0 | 3.0 | 0.00 | 0.00 | 0.00 | 1 | 1012.6 |
| 20260505010512 | 58 | 233 | 0.0 | 4.0 | 0.00 | 0.00 | 0.00 | 1 | 1012.5 |
| 20260505010009 | 58 | 226 | 0.0 | 4.0 | 0.00 | 0.00 | 0.00 | 1 | 1012.5 |
| 20260505005507 | 58 | 228 | 1.0 | 4.0 | 0.00 | 0.00 | 0.00 | 1 | 1012.5 |
| 20260505005049 | 58 | 252 | 0.0 | 3.0 | 0.00 | 0.00 | 0.00 | 1 | 1012.6 |
| 20260505004549 | 59 | 200 | 0.0 | 4.0 | 0.00 | 0.00 | 0.00 | 1 | 1012.5 |
| 20260505004045 | 59 | 222 | 0.0 | 5.0 | 0.00 | 0.00 | 0.00 | 1 | 1012.6 |
| 20260505003548 | 59 | 103 | 1.0 | 5.0 | 0.00 | 0.00 | 0.00 | 1 | 1012.6 |
| 20260505003043 | 59 | 247 | 0.0 | 4.0 | 0.00 | 0.00 | 0.00 | 1 | 1012.6 |
| 20260505002541 | 59 | 217 | 0.0 | 4.0 | 0.00 | 0.00 | 0.00 | 1 | 1012.6 |
| 20260505002026 | 59 | 228 | 1.0 | 4.0 | 0.00 | 0.00 | 0.00 | 1 | 1012.6 |
| 20260505001520 | 59 | 166 | 0.0 | 5.0 | 0.00 | 0.00 | 0.00 | 1 | 1012.7 |
| 20260505001020 | 59 | 222 | 0.0 | 4.0 | 0.00 | 0.00 | 0.00 | 1 | 1012.7 |
| 20260505000517 | 59 | 224 | 1.0 | 4.0 | 0.00 | 0.00 | 0.00 | 1 | 1012.7 |
| 20260505000023 | 59 | 228 | 1.0 | 7.0 | 0.00 | 0.00 | 0.00 | 1 | 1012.7 |
| 20260504235515 | 59 | 228 | 2.0 | 7.0 | 0.00 | 0.00 | 0.00 | 1 | 1012.7 |
| 20260504235100 | 59 | 217 | 0.0 | 5.0 | 0.00 | 0.00 | 0.00 | 1 | 1012.7 |
| 20260504234556 | 59 | 231 | 1.0 | 4.0 | 0.00 | 0.00 | 0.00 | 1 | 1012.8 |
| 20260504234057 | 59 | 228 | 1.0 | 4.0 | 0.00 | 0.00 | 0.00 | 1 | 1012.9 |
| 20260504233555 | 59 | 307 | 0.0 | 2.0 | 0.00 | 0.00 | 0.00 | 1 | 1012.9 |
| 20260504233104 | 59 | 58 | 0.0 | 2.0 | 0.00 | 0.00 | 0.00 | 1 | 1012.9 |
| 20260504232554 | 59 | 247 | 0.0 | 3.0 | 0.00 | 0.00 | 0.00 | 1 | 1012.9 |
| 20260504232035 | 59 | 238 | 0.0 | 4.0 | 0.00 | 0.00 | 0.00 | 1 | 1012.9 |
| 20260504231534 | 59 | 220 | 0.0 | 4.0 | 0.00 | 0.00 | 0.00 | 1 | 1012.9 |
| 20260504231032 | 59 | 229 | 0.0 | 6.0 | 0.00 | 0.00 | 0.00 | 1 | 1012.9 |
| 20260504230530 | 59 | 222 | 1.0 | 7.0 | 0.00 | 0.00 | 0.00 | 1 | 1013.0 |
| 20260504230029 | 60 | 179 | 3.0 | 7.0 | 0.00 | 0.00 | 0.00 | 1 | 1013.0 |
| 20260504225528 | 61 | 226 | 1.0 | 6.0 | 0.00 | 0.00 | 0.00 | 1 | 1013.0 |
| 20260504225014 | 61 | 249 | 1.0 | 4.0 | 0.00 | 0.00 | 0.00 | 1 | 1013.0 |
| 20260504224508 | 61 | 229 | 1.0 | 4.0 | 0.00 | 0.00 | 0.00 | 1 | 1013.0 |
| 20260504224006 | 61 | 155 | 0.0 | 4.0 | 0.00 | 0.00 | 0.00 | 1 | 1013.0 |
| 20260504223505 | 61 | 205 | 1.0 | 4.0 | 0.00 | 0.00 | 0.00 | 1 | 1012.9 |
| 20260504223007 | 61 | 208 | 0.0 | 6.0 | 0.00 | 0.00 | 0.00 | 1 | 1013.0 |
| 20260504222501 | 61 | 203 | 1.0 | 6.0 | 0.00 | 0.00 | 0.00 | 1 | 1013.0 |
| 20260504222100 | 61 | 245 | 0.0 | 5.0 | 0.00 | 0.00 | 0.00 | 1 | 1013.1 |
| 20260504221542 | 62 | 224 | 1.0 | 8.0 | 0.00 | 0.00 | 0.00 | 1 | 1013.1 |
| 20260504221040 | 62 | 228 | 1.0 | 4.0 | 0.00 | 0.00 | 0.00 | 1 | 1013.1 |
| 20260504220540 | 62 | 218 | 1.0 | 7.0 | 0.00 | 0.00 | 0.00 | 1 | 1013.1 |
| 20260504220042 | 62 | 225 | 2.0 | 7.0 | 0.00 | 0.00 | 0.00 | 1 | 1013.2 |
| 20260504215537 | 62 | 219 | 1.0 | 8.0 | 0.00 | 0.00 | 0.00 | 1 | 1013.1 |
| 20260504215034 | 61 | 231 | 1.0 | 9.0 | 0.00 | 0.00 | 0.00 | 1 | 1013.2 |
| 20260504214520 | 62 | 217 | 2.0 | 9.0 | 0.00 | 0.00 | 0.00 | 1 | 1013.1 |
| 20260504214017 | 62 | 240 | 0.0 | 4.0 | 0.00 | 0.00 | 0.00 | 1 | 1013.1 |
| 20260504213512 | 62 | 219 | 1.0 | 5.0 | 0.00 | 0.00 | 0.00 | 1 | 1013.1 |
| 20260504213011 | 61 | 228 | 1.0 | 5.0 | 0.00 | 0.00 | 0.00 | 1 | 1013.2 |
| 20260504212510 | 61 | 233 | 0.0 | 6.0 | 0.00 | 0.00 | 0.00 | 1 | 1013.2 |
| 20260504212008 | 61 | 224 | 1.0 | 7.0 | 0.00 | 0.00 | 0.00 | 1 | 1013.3 |
| 20260504211553 | 61 | 224 | 0.0 | 7.0 | 0.00 | 0.00 | 0.00 | 1 | 1013.3 |
| 20260504211050 | 61 | 183 | 1.0 | 8.0 | 0.00 | 0.00 | 0.00 | 1 | 1013.3 |
| 20260504210550 | 60 | 207 | 1.0 | 8.0 | 0.00 | 0.00 | 0.00 | 1 | 1013.2 |
| 20260504210048 | 61 | 236 | 3.0 | 8.0 | 0.00 | 0.00 | 0.00 | 1 | 1013.1 |
| 20260504205546 | 61 | 235 | 0.0 | 4.0 | 0.00 | 0.00 | 0.00 | 1 | 1013.2 |
| 20260504205044 | 61 | 135 | 0.0 | 10.0 | 0.00 | 0.00 | 0.00 | 1 | 1013.1 |
| 20260504204528 | 61 | 219 | 1.0 | 7.0 | 0.00 | 0.00 | 0.00 | 1 | 1013.2 |
| 20260504204024 | 60 | 74 | 2.0 | 7.0 | 0.00 | 0.00 | 0.00 | 1 | 1013.2 |
| 20260504203525 | 60 | 187 | 1.0 | 6.0 | 0.00 | 0.00 | 0.00 | 1 | 1013.1 |
| 20260504203026 | 60 | 219 | 0.0 | 4.0 | 0.00 | 0.00 | 0.00 | 1 | 1013.1 |
| 20260504202520 | 60 | 225 | 0.0 | 4.0 | 0.00 | 0.00 | 0.00 | 1 | 1013.2 |
| 20260504202019 | 60 | 211 | 0.0 | 6.0 | 0.00 | 0.00 | 0.00 | 1 | 1013.2 |
| 20260504201625 | 60 | 274 | 0.0 | 7.0 | 0.00 | 0.00 | 0.00 | 1 | 1013.2 |
| 20260504201059 | 61 | 252 | 2.0 | 7.0 | 0.00 | 0.00 | 0.00 | 1 | 1013.2 |
| 20260504200557 | 61 | 225 | 1.0 | 6.0 | 0.00 | 0.00 | 0.00 | 1 | 1013.3 |
| 20260504200056 | 60 | 44 | 0.0 | 8.0 | 0.00 | 0.00 | 0.00 | 1 | 1013.3 |
| 20260504195554 | 61 | 246 | 2.0 | 8.0 | 0.00 | 0.00 | 0.00 | 1 | 1013.2 |
| 20260504195052 | 61 | 257 | 2.0 | 8.0 | 0.00 | 0.00 | 0.00 | 1 | 1013.2 |
| 20260504194534 | 61 | 236 | 3.0 | 7.0 | 0.00 | 0.00 | 0.00 | 1 | 1013.2 |
| 20260504194032 | 60 | 249 | 2.0 | 7.0 | 0.00 | 0.00 | 0.00 | 1 | 1013.1 |
| 20260504193530 | 60 | 235 | 2.0 | 9.0 | 0.00 | 0.00 | 0.00 | 1 | 1013.1 |
| 20260504193030 | 60 | 211 | 2.0 | 11.0 | 0.00 | 0.00 | 0.00 | 1 | 1013.2 |
| 20260504192527 | 60 | 207 | 1.0 | 6.0 | 0.00 | 0.00 | 0.00 | 1 | 1013.1 |
| 20260504192029 | 60 | 224 | 1.0 | 6.0 | 0.00 | 0.00 | 0.00 | 1 | 1013.2 |
| 20260504191510 | 60 | 224 | 1.0 | 10.0 | 0.00 | 0.00 | 0.00 | 1 | 1013.2 |
| 20260504191009 | 61 | 236 | 4.0 | 10.0 | 0.00 | 0.00 | 0.00 | 1 | 1013.2 |
| 20260504190509 | 60 | 231 | 1.0 | 8.0 | 0.00 | 0.00 | 0.00 | 1 | 1013.1 |
| 20260504190009 | 61 | 225 | 2.0 | 5.0 | 0.00 | 0.00 | 0.00 | 1 | 1013.2 |
| 20260504185508 | 61 | 223 | 0.0 | 9.0 | 0.00 | 0.00 | 0.00 | 1 | 1013.1 |
| 20260504185006 | 61 | 238 | 4.0 | 9.0 | 0.00 | 0.00 | 0.00 | 1 | 1013.1 |
| 20260504184602 | 61 | 238 | 1.0 | 7.0 | 0.00 | 0.00 | 0.00 | 1 | 1013.1 |
| 20260504184043 | 60 | 224 | 0.0 | 9.0 | 0.00 | 0.00 | 0.00 | 1 | 1013.1 |
| 20260504183542 | 60 | 190 | 2.0 | 9.0 | 0.00 | 0.00 | 0.00 | 1 | 1013.1 |
| 20260504183042 | 59 | 246 | 3.0 | 9.0 | 0.00 | 0.00 | 0.00 | 1 | 1013.1 |
| 20260504182539 | 59 | 225 | 1.0 | 9.0 | 0.00 | 0.00 | 0.00 | 1 | 1013.1 |
| 20260504182039 | 60 | 218 | 3.0 | 7.0 | 0.00 | 0.00 | 0.00 | 1 | 1013.1 |
| 20260504181529 | 59 | 210 | 1.0 | 5.0 | 0.00 | 0.00 | 0.00 | 1 | 1013.0 |
| 20260504181020 | 58 | 238 | 0.0 | 10.0 | 0.00 | 0.00 | 0.00 | 1 | 1013.1 |
| 20260504180519 | 58 | 217 | 3.0 | 10.0 | 0.00 | 0.00 | 0.00 | 1 | 1013.1 |
| 20260504180018 | 58 | 239 | 1.0 | 6.0 | 0.00 | 0.00 | 0.00 | 1 | 1012.9 |
| 20260504175515 | 58 | 225 | 1.0 | 5.0 | 0.00 | 0.00 | 0.00 | 1 | 1012.9 |
| 20260504175015 | 57 | 172 | 1.0 | 8.0 | 0.00 | 0.00 | 0.00 | 1 | 1012.9 |
| 20260504174555 | 57 | 231 | 0.0 | 8.0 | 0.00 | 0.00 | 0.00 | 1 | 1012.9 |
| 20260504174055 | 57 | 172 | 1.0 | 12.0 | 0.00 | 0.00 | 0.00 | 1 | 1012.8 |
| 20260504173553 | 57 | 209 | 4.0 | 12.0 | 0.00 | 0.00 | 0.00 | 1 | 1012.9 |
| 20260504173051 | 57 | 124 | 4.0 | 9.0 | 0.00 | 0.00 | 0.00 | 1 | 1012.9 |
| 20260504172549 | 57 | 338 | 2.0 | 7.0 | 0.00 | 0.00 | 0.00 | 1 | 1012.7 |
| 20260504172048 | 57 | 235 | 2.0 | 7.0 | 0.00 | 0.00 | 0.00 | 1 | 1012.8 |
| 20260504171533 | 57 | 229 | 1.0 | 12.0 | 0.00 | 0.00 | 0.00 | 1 | 1012.8 |
| 20260504171031 | 57 | 153 | 1.0 | 12.0 | 0.00 | 0.00 | 0.00 | 1 | 1012.7 |
| 20260504170531 | 56 | 243 | 1.0 | 6.0 | 0.00 | 0.00 | 0.00 | 1 | 1012.7 |
| 20260504151042 | 55 | 211 | 2.0 | 5.0 | 0.00 | 0.00 | 0.00 | 1011.9 | |
| 20260504150541 | 0 | 0.0 | 0.0 | 0.00 | 0.00 | 0.00 | 1011.9 | ||
| 20260504141050 | 0 | 0.0 | 0.0 | 0.00 | 0.00 | 0.00 | 1011.5 | ||
| 20260504140649 | 0 | 0.0 | 0.0 | 0.00 | 0.00 | 0.00 | 1011.4 | ||
| 20260504140105 | 0 | 0.0 | 0.0 | 0.00 | 0.00 | 0.00 | 1011.3 | ||
| 20260504130602 | 0 | 0.0 | 0.0 | 0.00 | 0.00 | 0.00 | 1010.8 | ||
| 20260504110532 | 0 | 0.0 | 0.0 | 0.00 | 0.00 | 0.00 | 1010.1 | ||
| 20260504100556 | 0 | 0.0 | 0.0 | 0.00 | 0.00 | 0.00 | 1009.7 | ||
| 20260504082000 | 0 | 0.0 | 0.0 | 0.00 | 0.00 | 0.00 | 1008.4 | ||
| 20260504081601 | 0 | 0.0 | 0.0 | 0.00 | 0.00 | 0.00 | 1008.4 | ||
| 20260504081059 | 0 | 0.0 | 0.0 | 0.00 | 0.00 | 0.00 | 1008.4 | ||
| 20260504080541 | 0 | 0.0 | 0.0 | 0.00 | 0.00 | 0.00 | 1008.4 |